Flag for U.S.A. Weather past 2 weeks in Cincinnati, Ohio, U.S.A.

Now
90 °F

Scattered clouds.


Feels Like: 94 °F
Forecast: 67 / 91 °F
Wind: 7 mph from Southwest

Location: Cincinnati Municipal Airport Lunken Field

Current Time: Sep 4, 2015 at 2:58:16 PM

Latest Report: Sep 4, 2015 at 1:53 PM


Visibility: 10 mi

Pressure: 30.02 "Hg

Humidity: 48%

Dew point: 68 °F

Location of CincinnatiLocation

Historic Weather in Cincinnati — Graph

°F

Cincinnati temperature yesterday

Maximum temperature yesterday: 90 °F (at 2:53 PM)
Minimum temperature yesterday: 65 °F (at 6:53 AM)
Average temperature yesterday: 76 °F

Past Weeks' High & Low Weather Summary

 TemperatureHumidityPressure
High90 °F (Sep 3, 2:53 PM)100% (Aug 21, 1:53 AM)30.21 "Hg (Aug 21, 1:53 AM)
Low52 °F (Aug 28, 6:01 AM)39% (Aug 21, 3:53 PM)29.87 "Hg (Aug 23, 7:53 PM)
Average70 °F78%30.07 "Hg
* Reported Aug 20 12:53 PM — Sep 4 12:53 PM, Cincinnati, Weather by CustomWeather, © 2015

Note: Actual official high and low records may vary slightly from our data, if they occured in-between our weather recording intervals... More about our weather records

Advertising

Cincinnati weather history for previous 24 hours

 ConditionsComfort  
Time TempWeatherWind HumidityBarometerVisibility
12:53 PM
Fri, Sep 4
88 °FScattered clouds.7 mph52%30.03 "Hg10 mi
11:53 AM87 °FSunny.3 mph55%30.04 "Hg10 mi
10:53 AM83 °FSunny.3 mph68%30.04 "Hg7 mi
9:53 AM77 °FSunny.No wind85%30.03 "Hg5 mi
8:53 AM71 °FFog.No wind96%30.03 "Hg3 mi
7:53 AM67 °FFog.No wind100%30.03 "Hg3 mi
6:53 AM66 °FFog.No wind100%30.01 "Hg3 mi
6:01 AM67 °FFog.No wind100%30.01 "Hg1 mi
5:00 AM67 °FFog.No wind100%30.00 "Hg1 mi
3:57 AM67 °FFog.No wind100%29.99 "Hg1 mi
2:53 AM66 °FFog.No wind100%29.96 "Hg2 mi
1:53 AM68 °FFog.No wind100%29.96 "Hg4 mi
12:53 AM68 °FFog.No wind100%29.96 "Hg4 mi
11:53 PM
Thu, Sep 3
69 °FClear.No wind96%29.96 "Hg7 mi
10:53 PM71 °FClear.No wind90%29.96 "Hg8 mi
9:53 PM72 °FClear.No wind91%29.95 "Hg9 mi
8:53 PM75 °FSunny.No wind82%29.93 "Hg10 mi
7:53 PM80 °FPassing clouds.No wind74%29.92 "Hg10 mi
6:53 PM88 °FPassing clouds.5 mph46%29.91 "Hg10 mi
5:53 PM88 °FPassing clouds.3 mph48%29.91 "Hg10 mi
4:53 PM89 °FScattered clouds.6 mph45%29.93 "Hg10 mi
3:53 PM90 °FScattered clouds.No wind43%29.94 "Hg10 mi
2:53 PM90 °FScattered clouds.3 mph47%29.96 "Hg10 mi
Weather by CustomWeather, © 2015

See weather overviewHow to use our weather pages